Find Starlink 2171

NORAD ID: 47754 Int'l Des: 2021-017 Owner: SPXS Country: US Constellation: starlink decayed
LEOCIRCULAR

Re-entered — 8. Juni 2026

3D-Globus wird geladen...

About Starlink 2171

Starlink 2171 (NORAD 47754) is a starlink constellation satellite (v1.0) launched Mar 4, 2021 by SPXS of US. It re-entered the atmosphere on Jun 8, 2026. with a mass of 260.00 kg.

Höhenverlauf

Loading altitude history...

Zweizeiliger Elementsatz

1 47754U 21017AJ 26159.31806737 .07209204 12230-4 70126-3 0 9991
2 47754 53.0209 69.0731 0008701 240.6169 119.4008 16.37430031292732
Epoch: 8. Juni 2026 • Age: 2514 hours

Aktueller Status

Position data unavailable
Startdatum 4. März 2021
Alter 5.5 years
Verglühungsdatum 8. Juni 2026
Typ internet

Technische Details

Klassifizierung Payload
Masse 260.00 kg
Trockenmasse 248.00 kg
Länge 0.20 m
Spannweite 9.00 m
Form ? Box + pan
Hersteller SPXS
Bus-Typ Starlink
Phasenstatus Unknown Transfer Status
Besitzer/Staat SPXS/US

Most Searched